This is the latest recevied weather packets stored in our database for station/object DK4SDR-10. If no packets are shown the sender has not sent any weather packets the latest 10 day(s).
| Time | Temp. | Humidity | Pressure | Rain* | Wind** | Luminosity | Snow |
|---|---|---|---|---|---|---|---|
| 1778141075 | 12.78° C | 67% | 1013.7 hPa | - | - | - | - |
| 1778140175 | 12.78° C | 67% | 1013.6 hPa | - | - | - | - |
| 1778139275 | 12.78° C | 67% | 1013.4 hPa | - | - | - | - |
| 1778138375 | 12.78° C | 67% | 1013.2 hPa | - | - | - | - |
| 1778137475 | 12.78° C | 67% | 1013.1 hPa | - | - | - | - |
| 1778136575 | 12.78° C | 67% | 1013 hPa | - | - | - | - |
| 1778135679 | 12.22° C | 67% | 1012.8 hPa | - | - | - | - |
| 1778133874 | 12.78° C | 68% | 1012.5 hPa | - | - | - | - |
| 1778132974 | 12.22° C | 68% | 1012.2 hPa | - | - | - | - |
| 1778129376 | 12.78° C | 67% | 1011.6 hPa | - | - | - | - |
| 1778128476 | 12.78° C | 67% | 1011.4 hPa | - | - | - | - |
| 1778127574 | 12.78° C | 67% | 1011.1 hPa | - | - | - | - |
| 1778126676 | 13.33° C | 66% | 1011 hPa | - | - | - | - |
| 1778125774 | 13.33° C | 66% | 1010.8 hPa | - | - | - | - |
| 1778122174 | 13.33° C | 66% | 1010.4 hPa | - | - | - | - |
| 1778121274 | 13.33° C | 66% | 1010.3 hPa | - | - | - | - |
| 1778119477 | 13.33° C | 65% | 1010.1 hPa | - | - | - | - |
| 1778118574 | 13.33° C | 65% | 1010 hPa | - | - | - | - |
| 1778114974 | 13.89° C | 64% | 1010 hPa | - | - | - | - |
| 1778114074 | 13.89° C | 65% | 1009.9 hPa | - | - | - | - |
| 1778113174 | 13.89° C | 66% | 1009.9 hPa | - | - | - | - |
| 1778112274 | 13.89° C | 66% | 1009.9 hPa | - | - | - | - |
| 1778111373 | 13.89° C | 66% | 1010 hPa | - | - | - | - |
| 1778110473 | 13.89° C | 65% | 1009.9 hPa | - | - | - | - |
| 1778109573 | 14.44° C | 65% | 1009.8 hPa | - | - | - | - |
* Rain since midnight (hover to see other rain measurements)
** Current wind speed in m/s (hover to see current wind gust speed)